Voltar ao catálogo

ONEWEB-0543

AtivoComunicaçõesPO
NORAD 55143·PAYLOAD·🇬🇧 United Kingdom

Lançado Jan 10, 2023 de Cape Canaveral Space Force Station

Loading…

Próximas Passagens (próximas 24 horas)

TLE

AtualizadoSource: CelesTrak SupGP

Época: Sep 14, 2026, 20:33 UTC

1 55143C 23004D   26257.85674028 -.00000595  00000+0 -15118-2 0  2574
2 55143  87.9162 317.6499 0002038  92.0720 300.4534 13.18688438    15

Acompanhe ONEWEB-0543 em tempo real com AllMySat

Download on the App Store